Cando, ND

1:13 AM CST on November 15, 2019 (GMT -0600)
Cando

Weather History for K9D7 - October, 2019

Change the Weather History Date:

Tuesday, October 22, 2019

  Actual Average (WUND) Record (WUND)
Temperature  
Mean Temperature 33 °F -  
Max Temperature 42 °F - - (-1)
Min Temperature 24 °F - - (-1)
Degree Days  
Heating Degree Days 32    
Moisture  
Dew Point 28 °F    
Average Humidity 82    
Maximum Humidity 100    
Minimum Humidity 46    
Precipitation  
Precipitation 0.00 in - - ()
Sea Level Pressure  
Sea Level Pressure 29.79 in    
Wind  
Wind Speed 18 mph (NNW)    
Max Wind Speed 30 mph    
Max Gust Speed 38 mph    
Visibility 10 miles    
Events      
Averages and records for this station are not official NWS values.
T = Trace of Precipitation, MM = Missing Value Source: NWS Daily Summary

Daily Weather History Graph

Daily Weather History Graph

Search for Another Location

Airport or City:

Astronomy

Oct. 22, 2019 Rise Set
Actual Time 8:07 AM CDT 6:34 PM CDT
Civil Twilight 7:35 AM CDT 7:06 PM CDT
Nautical Twilight 6:58 AM CDT 7:43 PM CDT
Astronomical Twilight 6:22 AM CDT 8:19 PM CDT
Moon 12:38 AM CDT (10/22) 4:22 PM CDT (10/22)
Length of Visible Light 11h 31m
Length of Day
10h 27m
Last Quarter, 37% of the Moon is Illuminated
Oct 22
Last Quarter
Oct 27
New
Nov 4
First Quarter
Nov 12
Full
Nov 19
Last Quarter

Hourly Weather History & Observations

Time (CDT) Temp. Windchill Dew Point Humidity Pressure Visibility Wind Dir Wind Speed Gust Speed Precip Events Conditions
12:15 AM 33.8 °F 23.9 °F 33.8 °F 100% 29.85 in 10.0 mi NNW 15.0 mph 24.2 mph N/A   Clear
12:35 AM 33.8 °F 22.8 °F 33.8 °F 100% 29.84 in 10.0 mi NNW 18.4 mph 26.5 mph N/A   Clear
12:55 AM 32.0 °F 20.1 °F 32.0 °F 100% 29.84 in 10.0 mi NNW 19.6 mph 27.6 mph N/A   Clear
1:15 AM 32.0 °F 20.8 °F 32.0 °F 100% 29.83 in 10.0 mi NNW 17.3 mph 25.3 mph N/A   Clear
1:35 AM 32.0 °F 20.1 °F 32.0 °F 100% 29.83 in 10.0 mi NNW 19.6 mph 27.6 mph N/A   Clear
1:55 AM 32.0 °F 20.5 °F 32.0 °F 100% 29.83 in 10.0 mi NNW 18.4 mph 27.6 mph N/A   Clear
2:15 AM 32.0 °F 19.2 °F 32.0 °F 100% 29.83 in 10.0 mi NNW 23.0 mph - N/A   Clear
2:35 AM 32.0 °F 20.1 °F 32.0 °F 100% 29.83 in 10.0 mi NNW 19.6 mph 27.6 mph N/A   Clear
2:55 AM 32.0 °F 20.1 °F 32.0 °F 100% 29.83 in 10.0 mi NNW 19.6 mph 26.5 mph N/A   Clear
3:15 AM 32.0 °F 19.5 °F 32.0 °F 100% 29.82 in 10.0 mi NNW 21.9 mph - N/A   Clear
3:35 AM 32.0 °F 19.8 °F 32.0 °F 100% 29.82 in 10.0 mi NNW 20.7 mph 27.6 mph N/A   Clear
3:55 AM 32.0 °F 19.5 °F 32.0 °F 100% 29.82 in 10.0 mi NNW 21.9 mph 33.4 mph N/A   Clear
4:15 AM 30.2 °F 17.8 °F 30.2 °F 100% 29.82 in 10.0 mi NNW 19.6 mph 26.5 mph N/A   Clear
4:35 AM 30.2 °F 17.8 °F 30.2 °F 100% 29.82 in 10.0 mi NNW 19.6 mph 26.5 mph N/A   Clear
4:55 AM 30.2 °F 17.8 °F 30.2 °F 100% 29.81 in 10.0 mi NNW 19.6 mph - N/A   Clear
5:15 AM - - - N/A% 29.81 in 10.0 mi NNW 17.3 mph 25.3 mph N/A   Clear
5:35 AM 30.2 °F 17.8 °F 30.2 °F 100% 29.81 in 10.0 mi NNW 19.6 mph 25.3 mph N/A   Clear
5:55 AM 30.2 °F 18.5 °F 30.2 °F 100% 29.82 in 10.0 mi NNW 17.3 mph - N/A   Clear
6:15 AM 30.2 °F 18.1 °F 30.2 °F 100% 29.81 in 10.0 mi NW 18.4 mph 25.3 mph N/A   Clear
6:35 AM 30.2 °F 17.4 °F 30.2 °F 100% 29.81 in 10.0 mi NNW 20.7 mph 27.6 mph N/A   Clear
6:55 AM 32.0 °F 19.5 °F 32.0 °F 100% 29.81 in 10.0 mi NNW 21.9 mph 32.2 mph N/A   Clear
7:15 AM 32.0 °F 19.2 °F 32.0 °F 100% 29.81 in 10.0 mi NNW 23.0 mph 31.1 mph N/A   Clear
7:35 AM 32.0 °F 19.8 °F 32.0 °F 100% 29.80 in 10.0 mi NNW 20.7 mph 27.6 mph N/A   Clear
7:55 AM 32.0 °F 19.8 °F 32.0 °F 100% 29.80 in 10.0 mi NNW 20.7 mph - N/A   Clear
8:15 AM 32.0 °F 19.8 °F 32.0 °F 100% 29.80 in 10.0 mi NNW 20.7 mph 28.8 mph N/A   Clear
8:35 AM 32.0 °F 19.8 °F 32.0 °F 100% 29.80 in 10.0 mi NNW 20.7 mph 27.6 mph N/A   Clear
8:55 AM 32.0 °F 20.1 °F 32.0 °F 100% 29.80 in 10.0 mi NNW 19.6 mph 26.5 mph N/A   Clear
9:15 AM 32.0 °F 19.5 °F 32.0 °F 100% 29.80 in 10.0 mi NNW 21.9 mph 28.8 mph N/A   Clear
9:35 AM 33.8 °F 21.9 °F 32.0 °F 93% 29.80 in 10.0 mi NNW 21.9 mph 29.9 mph N/A   Clear
9:55 AM 33.8 °F 21.9 °F 28.4 °F 81% 29.80 in 10.0 mi NNW 21.9 mph 31.1 mph N/A   Clear
10:15 AM 35.6 °F 24.2 °F 26.6 °F 70% 29.80 in 10.0 mi NNW 21.9 mph 32.2 mph N/A   Clear
10:35 AM 35.6 °F 22.5 °F 26.6 °F 70% 29.79 in 10.0 mi NNW 29.9 mph 38.0 mph N/A   Clear
10:55 AM 35.6 °F 23.0 °F 26.6 °F 70% 29.79 in 10.0 mi NNW 27.6 mph 36.8 mph N/A   Clear
11:15 AM 37.4 °F 25.4 °F 26.6 °F 65% 29.78 in 10.0 mi NNW 27.6 mph 38.0 mph N/A   Clear
11:35 AM 37.4 °F 25.2 °F 26.6 °F 65% 29.79 in 10.0 mi NNW 28.8 mph 35.7 mph N/A   Clear
12:15 PM 37.4 °F 26.1 °F 26.6 °F 65% 29.79 in 10.0 mi NNW 24.2 mph 31.1 mph N/A   Partly Cloudy
12:55 PM 39.2 °F 29.0 °F 26.6 °F 61% 29.78 in 10.0 mi North 21.9 mph 28.8 mph N/A   Partly Cloudy
1:15 PM 39.2 °F 28.7 °F 26.6 °F 61% 29.78 in 10.0 mi NNW 23.0 mph 29.9 mph N/A   Partly Cloudy
1:35 PM 41.0 °F 31.1 °F 26.6 °F 57% 29.77 in 10.0 mi NNW 23.0 mph 31.1 mph N/A   Partly Cloudy
1:55 PM 41.0 °F 30.7 °F 26.6 °F 57% 29.76 in 10.0 mi NW 25.3 mph - N/A   Clear
2:15 PM 41.0 °F 30.9 °F 26.6 °F 57% 29.76 in 10.0 mi NNW 24.2 mph 31.1 mph N/A   Clear
2:35 PM 42.8 °F 33.1 °F 24.8 °F 49% 29.76 in 10.0 mi NNW 25.3 mph - N/A   Clear
2:55 PM 42.8 °F 34.3 °F 24.8 °F 49% 29.76 in 10.0 mi NNW 19.6 mph 28.8 mph N/A   Clear
3:15 PM 42.8 °F 33.8 °F 24.8 °F 49% 29.76 in 10.0 mi NNW 21.9 mph - N/A   Clear
3:35 PM 42.8 °F 34.0 °F 24.8 °F 49% 29.76 in 10.0 mi NNW 20.7 mph 28.8 mph N/A   Clear
3:55 PM 42.8 °F 34.0 °F 23.0 °F 46% 29.76 in 10.0 mi NNW 20.7 mph 28.8 mph N/A   Clear
4:15 PM 42.8 °F 34.8 °F 23.0 °F 46% 29.76 in 10.0 mi NNW 17.3 mph 25.3 mph N/A   Clear
4:35 PM 42.8 °F 33.5 °F 23.0 °F 46% 29.76 in 10.0 mi NNW 23.0 mph - N/A   Clear
4:55 PM 42.8 °F 34.3 °F 23.0 °F 46% 29.76 in 10.0 mi NNW 19.6 mph 25.3 mph N/A   Clear
5:15 PM 41.0 °F 31.9 °F 23.0 °F 49% 29.76 in 10.0 mi NNW 19.6 mph 26.5 mph N/A   Clear
5:35 PM 41.0 °F 32.5 °F 23.0 °F 49% 29.77 in 10.0 mi NNW 17.3 mph 24.2 mph N/A   Clear
5:55 PM 39.2 °F 30.5 °F 24.8 °F 56% 29.77 in 10.0 mi NW 16.1 mph - N/A   Clear
6:15 PM 37.4 °F 29.3 °F 24.8 °F 60% 29.77 in 10.0 mi NW 12.7 mph 18.4 mph N/A   Clear
6:35 PM 35.6 °F 28.0 °F 24.8 °F 65% 29.77 in 10.0 mi NW 10.4 mph - N/A   Clear
6:55 PM 33.8 °F 27.0 °F 24.8 °F 70% 29.78 in 10.0 mi NW 8.1 mph - N/A   Clear
7:15 PM 32.0 °F 24.2 °F 23.0 °F 69% 29.78 in 10.0 mi WNW 9.2 mph - N/A   Clear
7:35 PM 30.2 °F 21.9 °F 24.8 °F 80% 29.78 in 10.0 mi NW 9.2 mph - N/A   Clear
7:55 PM 28.4 °F 19.7 °F 24.8 °F 86% 29.78 in 10.0 mi WNW 9.2 mph - N/A   Clear
8:15 PM 28.4 °F 19.7 °F 24.8 °F 86% 29.78 in 10.0 mi WNW 9.2 mph - N/A   Clear
8:35 PM 30.2 °F 21.9 °F 24.8 °F 80% 29.78 in 10.0 mi WNW 9.2 mph - N/A   Clear
8:55 PM 28.4 °F 22.2 °F 24.8 °F 86% 29.79 in 10.0 mi NW 5.8 mph - N/A   Clear
9:15 PM 26.6 °F 20.0 °F 26.6 °F 100% 29.79 in 10.0 mi North 5.8 mph - N/A   Clear
9:35 PM 26.6 °F 19.1 °F 26.6 °F 100% 29.79 in 10.0 mi NW 6.9 mph - N/A   Clear
9:55 PM 24.8 °F 19.1 °F 24.8 °F 100% 29.78 in 10.0 mi NNW 4.6 mph - N/A   Clear
10:15 PM 24.8 °F 16.9 °F 24.8 °F 100% 29.79 in 10.0 mi NNW 6.9 mph - N/A   Clear
10:35 PM 26.6 °F 17.5 °F 26.6 °F 100% 29.79 in 10.0 mi North 9.2 mph - N/A   Clear
10:55 PM 28.4 °F 19.7 °F 28.4 °F 100% 29.79 in 10.0 mi North 9.2 mph - N/A   Clear
11:15 PM 28.4 °F 19.7 °F 26.6 °F 93% 29.80 in 10.0 mi NNW 9.2 mph - N/A   Clear
11:35 PM 28.4 °F 19.7 °F 26.6 °F 93% 29.79 in 10.0 mi North 9.2 mph - N/A   Clear
11:55 PM 28.4 °F 19.1 °F 26.6 °F 93% 29.79 in 10.0 mi North 10.4 mph - N/A   Clear